Location: Champseau
(45.8333°N, 1.7667°E)
Time: 06:03:42
(UTC+00:00)

Envisat - Pass Details

Date: 25 September 2021
Orbit: 764 x 766 km, 98.2° (Epoch: 23 October)

Event Time Altitude Azimuth Distance (km) Brightness Sun altitude
Rises 03:57:23 0° 27° (NNE) 3,242 7.0 -19.0°
Reaches altitude 10° 04:00:18 10° 44° (NE) 2,310 6.4 -18.5°
Maximum altitude 04:04:02 20° 91° (E) 1,706 5.7 -17.9°
Drops below altitude 10° 04:07:43 10° 138° (SE) 2,296 5.8 -17.3°
Sets 04:10:36 0° 155° (SSE) 3,216 6.3 -16.8°
